Location: Charlottesville
(38.0290°N, 78.4770°W)
Time: 16:52:16
(UTC-04:00)

Envisat - Pass Details

Date: 08 October 2017
Orbit: 764 x 766 km, 98.2° (Epoch: 17 October)

Event Time Altitude Azimuth Distance (km) Brightness Sun altitude
Exits shadow 20:41:25 47° 47° (NE) 1,011 3.3 -23.5°
Drops below altitude 10° 20:45:39 10° 359° (N) 2,308 5.6 -24.3°
Sets 20:48:01 0° 354° (N) 3,238 6.5 -24.8°
